Fujishiro Maru — JD2313 — position and weather

sailwx.info

Track history (hours):
 
Tides and Currents Weather Stations Pressure Air Temp Water Temp Dewpoint Dewpoint Depression Visibility Wind Speed Wind Dir Waves Ship Positions

Fujishiro Maru

Last reported at 2017-Dec-15 04:29 UTC. Time now 2017-Dec-15 04:44 UTC.
Position N 34°23' E 135°08'.

Length 49 m.

Type: Tanker. MMSI: 431301819.

Date/timePositionNaut miles runAvg speedWind from/ knotsBaromVisibWave heightAir tempDewpointWater temp
2017-Dec-15 04:29N 34°23' E 135°08'611.8
2017-Dec-15 04:00N 34°28' E 135°12'1711.0
2017-Dec-15 02:30N 34°40' E 135°25'0 0.0
2017-Dec-15 00:57N 34°40' E 135°26'0 0.0
2017-Dec-15 00:27N 34°40' E 135°26'4 0.6
2017-Dec-14 18:30N 34°39' E 135°21'510.6
2017-Dec-14 18:00N 34°34' E 135°17'510.6
2017-Dec-14 17:30N 34°30' E 135°14'510.0
2017-Dec-14 17:00N 34°26' E 135°10'5 9.9
2017-Dec-14 16:30N 34°22' E 135°07'5 9.9
2017-Dec-14 16:00N 34°18' E 135°04'239 7.4
2017-Dec-13 07:50N 35°15' E 139°46'411.0
2017-Dec-13 07:30N 35°18' E 139°44'510.6
2017-Dec-13 07:00N 35°23' E 139°42'510.2
2017-Dec-13 06:29N 35°28' E 139°42'1 1.7
2017-Dec-13 05:52N 35°29' E 139°42'0 0.0
2017-Dec-13 05:28N 35°29' E 139°42'0 0.0
2017-Dec-13 04:55N 35°29' E 139°42'0 0.0
2017-Dec-13 04:22N 35°29' E 139°42'0 0.0
2017-Dec-13 03:58N 35°29' E 139°42'0 0.0
2017-Dec-13 02:46N 35°29' E 139°42'0 0.0
2017-Dec-13 02:22N 35°29' E 139°42'0 0.0
2017-Dec-13 01:58N 35°29' E 139°42'0 0.0
2017-Dec-13 01:22N 35°29' E 139°42'0 0.0
2017-Dec-13 00:55N 35°29' E 139°42'0 0.0
2017-Dec-13 00:25N 35°29' E 139°42'0 0.8
2017-Dec-13 00:00N 35°29' E 139°42'2 4.1
2017-Dec-12 23:29N 35°27' E 139°42'0 0.0
2017-Dec-12 22:59N 35°27' E 139°42'0 0.0
2017-Dec-12 22:23N 35°27' E 139°42'0 0.0
2017-Dec-12 21:59N 35°27' E 139°42'0 0.0
2017-Dec-12 21:29N 35°27' E 139°42'1 2.2
2017-Dec-12 21:00N 35°26' E 139°43'5 9.8
2017-Dec-12 20:30N 35°21' E 139°43'147 9.5
2017-Dec-12 05:07N 34°46' E 136°49'211.7
2017-Dec-12 04:58N 34°48' E 136°49'511.5
2017-Dec-12 04:30N 34°53' E 136°47'510.9
2017-Dec-12 04:00N 34°58' E 136°48'510.8
2017-Dec-12 03:30N 35°03' E 136°52'1 1.9
2017-Dec-12 03:00N 35°04' E 136°52'0 0.0
2017-Dec-12 02:24N 35°04' E 136°52'0 0.0
2017-Dec-12 02:00N 35°04' E 136°52'0 0.0
2017-Dec-12 01:30N 35°04' E 136°52'0 0.0
2017-Dec-12 01:00N 35°04' E 136°52'0 0.0
2017-Dec-12 00:30N 35°04' E 136°52'0 0.0
2017-Dec-12 00:00N 35°04' E 136°52'0 0.0
2017-Dec-11 23:30N 35°04' E 136°52'3 5.5
2017-Dec-11 23:00N 35°01' E 136°51'0 0.4
2017-Dec-11 22:28N 35°01' E 136°51'0 0.1
2017-Dec-11 21:55N 35°01' E 136°51'2 5.3
2017-Dec-11 21:30N 34°59' E 136°49'5 9.9
2017-Dec-11 21:00N 34°55' E 136°47'5 9.9
2017-Dec-11 20:29N 34°50' E 136°47'  
2017-Dec-08 10:20N 34°46' E 136°46'411.0
2017-Dec-08 10:00N 34°50' E 136°46'611.0
2017-Dec-08 09:30N 34°56' E 136°46'611.2
2017-Dec-08 09:00N 35°00' E 136°50'4 7.7
2017-Dec-08 08:29N 35°04' E 136°52'0 0.0
2017-Dec-08 07:59N 35°04' E 136°52'0 0.0
2017-Dec-08 07:26N 35°04' E 136°52'0 0.0
2017-Dec-08 06:59N 35°04' E 136°52'0 0.0
2017-Dec-08 06:29N 35°04' E 136°52'0 0.0
2017-Dec-08 05:59N 35°04' E 136°52'1 1.6
2017-Dec-08 05:31N 35°03' E 136°52'5 9.6
2017-Dec-08 05:00N 34°59' E 136°48'0 0.8
2017-Dec-08 04:28N 34°59' E 136°48'0 0.0
2017-Dec-08 03:58N 34°59' E 136°48'0 0.0
2017-Dec-08 03:28N 34°59' E 136°48'0 0.0
2017-Dec-08 02:55N 34°59' E 136°48'0 0.0
2017-Dec-08 02:28N 34°59' E 136°48'0 0.0
2017-Dec-08 01:55N 34°59' E 136°48'0 0.0
2017-Dec-08 01:25N 34°59' E 136°48'0 0.0
2017-Dec-08 00:58N 34°59' E 136°48'0 0.0
2017-Dec-07 21:15N 34°59' E 136°48'0 0.0
2017-Dec-07 21:00N 34°59' E 136°48'0 0.0
2017-Dec-07 20:30N 34°59' E 136°48'0 0.0
2017-Dec-07 20:00N 34°59' E 136°48'0 0.0
2017-Dec-07 19:30N 34°59' E 136°48'0 0.0
2017-Dec-07 19:00N 34°59' E 136°48'0 0.1
2017-Dec-07 18:30N 34°59' E 136°48'0 0.1
2017-Dec-07 18:00N 34°59' E 136°48'0 0.0
2017-Dec-07 17:30N 34°59' E 136°48'0 0.0
2017-Dec-07 17:00N 34°59' E 136°48'0 0.0
2017-Dec-07 16:30N 34°59' E 136°48'0 0.0
2017-Dec-07 16:00N 34°59' E 136°48'0 0.0
2017-Dec-07 15:30N 34°59' E 136°48'0 0.0
2017-Dec-07 15:00N 34°59' E 136°48'0 0.0
2017-Dec-07 14:30N 34°59' E 136°48'0 0.0
2017-Dec-07 14:00N 34°59' E 136°48'0 0.0
2017-Dec-07 13:30N 34°59' E 136°48'0 0.0
2017-Dec-07 13:00N 34°59' E 136°48'0 0.0
2017-Dec-07 12:30N 34°59' E 136°48'0 0.0
2017-Dec-07 12:00N 34°59' E 136°48'0 0.0
2017-Dec-07 11:30N 34°59' E 136°48'0 0.0
2017-Dec-07 11:00N 34°59' E 136°48'0 0.0
2017-Dec-07 10:24N 34°59' E 136°48'0 0.0
2017-Dec-07 10:00N 34°59' E 136°48'0 0.0
2017-Dec-07 09:30N 34°59' E 136°48'0 0.0
2017-Dec-07 09:00N 34°59' E 136°48'0 0.0
2017-Dec-07 08:30N 34°59' E 136°48'0 0.0
2017-Dec-07 07:54N 34°59' E 136°48'0 0.0
2017-Dec-07 06:33N 34°59' E 136°48'0 0.5
2017-Dec-07 06:27N 34°59' E 136°48'0 0.0
2017-Dec-07 06:00N 34°59' E 136°48'0 0.1
2017-Dec-07 05:30N 34°59' E 136°48'0 0.0
2017-Dec-07 05:00N 34°59' E 136°48'0 0.0
2017-Dec-07 04:30N 34°59' E 136°48'0 0.0
2017-Dec-07 04:00N 34°59' E 136°48'0 0.0
2017-Dec-07 03:24N 34°59' E 136°48'0 0.0
2017-Dec-07 02:57N 34°59' E 136°48'0 0.0
2017-Dec-07 02:27N 34°59' E 136°48'0 0.0
2017-Dec-07 02:00N 34°59' E 136°48'0 0.0
2017-Dec-07 01:27N 34°59' E 136°48'0 0.0
2017-Dec-07 00:57N 34°59' E 136°48'0 0.0
2017-Dec-07 00:27N 34°59' E 136°48'0 0.0
2017-Dec-07 00:00N 34°59' E 136°48'0 0.0
2017-Dec-06 23:27N 34°59' E 136°48'0 0.0
2017-Dec-06 22:57N 34°59' E 136°48'0 0.0
2017-Dec-06 22:30N 34°59' E 136°48'0 0.0
2017-Dec-06 21:57N 34°59' E 136°48'0 0.0
2017-Dec-06 21:30N 34°59' E 136°48'0 0.0
2017-Dec-06 20:54N 34°59' E 136°48'  
Track history (hours):
 
Tides and Currents Weather Stations Pressure Air Temp Water Temp Dewpoint Dewpoint Depression Visibility Wind Speed Wind Dir Waves Ship Positions

Fujishiro Maru

Last reported at 2017-Dec-15 04:29 UTC. Time now 2017-Dec-15 04:44 UTC.
Position N 34°23' E 135°08'.

Length 49 m.

Type: Tanker. MMSI: 431301819.

Date/timePositionNaut miles runAvg speedWind from/ knotsBaromVisibWave heightAir tempDewpointWater temp
2017-Dec-15 04:29N 34°23' E 135°08'611.8
2017-Dec-15 04:00N 34°28' E 135°12'1711.0
2017-Dec-15 02:30N 34°40' E 135°25'0 0.0
2017-Dec-15 00:57N 34°40' E 135°26'0 0.0
2017-Dec-15 00:27N 34°40' E 135°26'4 0.6
2017-Dec-14 18:30N 34°39' E 135°21'510.6
2017-Dec-14 18:00N 34°34' E 135°17'510.6
2017-Dec-14 17:30N 34°30' E 135°14'510.0
2017-Dec-14 17:00N 34°26' E 135°10'5 9.9
2017-Dec-14 16:30N 34°22' E 135°07'5 9.9
2017-Dec-14 16:00N 34°18' E 135°04'239 7.4
2017-Dec-13 07:50N 35°15' E 139°46'411.0
2017-Dec-13 07:30N 35°18' E 139°44'510.6
2017-Dec-13 07:00N 35°23' E 139°42'510.2
2017-Dec-13 06:29N 35°28' E 139°42'1 1.7
2017-Dec-13 05:52N 35°29' E 139°42'0 0.0
2017-Dec-13 05:28N 35°29' E 139°42'0 0.0
2017-Dec-13 04:55N 35°29' E 139°42'0 0.0
2017-Dec-13 04:22N 35°29' E 139°42'0 0.0
2017-Dec-13 03:58N 35°29' E 139°42'0 0.0
2017-Dec-13 02:46N 35°29' E 139°42'0 0.0
2017-Dec-13 02:22N 35°29' E 139°42'0 0.0
2017-Dec-13 01:58N 35°29' E 139°42'0 0.0
2017-Dec-13 01:22N 35°29' E 139°42'0 0.0
2017-Dec-13 00:55N 35°29' E 139°42'0 0.0
2017-Dec-13 00:25N 35°29' E 139°42'0 0.8
2017-Dec-13 00:00N 35°29' E 139°42'2 4.1
2017-Dec-12 23:29N 35°27' E 139°42'0 0.0
2017-Dec-12 22:59N 35°27' E 139°42'0 0.0
2017-Dec-12 22:23N 35°27' E 139°42'0 0.0
2017-Dec-12 21:59N 35°27' E 139°42'0 0.0
2017-Dec-12 21:29N 35°27' E 139°42'1 2.2
2017-Dec-12 21:00N 35°26' E 139°43'5 9.8
2017-Dec-12 20:30N 35°21' E 139°43'147 9.5
2017-Dec-12 05:07N 34°46' E 136°49'211.7
2017-Dec-12 04:58N 34°48' E 136°49'511.5
2017-Dec-12 04:30N 34°53' E 136°47'510.9
2017-Dec-12 04:00N 34°58' E 136°48'510.8
2017-Dec-12 03:30N 35°03' E 136°52'1 1.9
2017-Dec-12 03:00N 35°04' E 136°52'0 0.0
2017-Dec-12 02:24N 35°04' E 136°52'0 0.0
2017-Dec-12 02:00N 35°04' E 136°52'0 0.0
2017-Dec-12 01:30N 35°04' E 136°52'0 0.0
2017-Dec-12 01:00N 35°04' E 136°52'0 0.0
2017-Dec-12 00:30N 35°04' E 136°52'0 0.0
2017-Dec-12 00:00N 35°04' E 136°52'0 0.0
2017-Dec-11 23:30N 35°04' E 136°52'3 5.5
2017-Dec-11 23:00N 35°01' E 136°51'0 0.4
2017-Dec-11 22:28N 35°01' E 136°51'0 0.1
2017-Dec-11 21:55N 35°01' E 136°51'2 5.3
2017-Dec-11 21:30N 34°59' E 136°49'5 9.9
2017-Dec-11 21:00N 34°55' E 136°47'5 9.9
2017-Dec-11 20:29N 34°50' E 136°47'  
2017-Dec-08 10:20N 34°46' E 136°46'411.0
2017-Dec-08 10:00N 34°50' E 136°46'611.0
2017-Dec-08 09:30N 34°56' E 136°46'611.2
2017-Dec-08 09:00N 35°00' E 136°50'4 7.7
2017-Dec-08 08:29N 35°04' E 136°52'0 0.0
2017-Dec-08 07:59N 35°04' E 136°52'0 0.0
2017-Dec-08 07:26N 35°04' E 136°52'0 0.0
2017-Dec-08 06:59N 35°04' E 136°52'0 0.0
2017-Dec-08 06:29N 35°04' E 136°52'0 0.0
2017-Dec-08 05:59N 35°04' E 136°52'1 1.6
2017-Dec-08 05:31N 35°03' E 136°52'5 9.6
2017-Dec-08 05:00N 34°59' E 136°48'0 0.8
2017-Dec-08 04:28N 34°59' E 136°48'0 0.0
2017-Dec-08 03:58N 34°59' E 136°48'0 0.0
2017-Dec-08 03:28N 34°59' E 136°48'0 0.0
2017-Dec-08 02:55N 34°59' E 136°48'0 0.0
2017-Dec-08 02:28N 34°59' E 136°48'0 0.0
2017-Dec-08 01:55N 34°59' E 136°48'0 0.0
2017-Dec-08 01:25N 34°59' E 136°48'0 0.0
2017-Dec-08 00:58N 34°59' E 136°48'0 0.0
2017-Dec-07 21:15N 34°59' E 136°48'0 0.0
2017-Dec-07 21:00N 34°59' E 136°48'0 0.0
2017-Dec-07 20:30N 34°59' E 136°48'0 0.0
2017-Dec-07 20:00N 34°59' E 136°48'0 0.0
2017-Dec-07 19:30N 34°59' E 136°48'0 0.0
2017-Dec-07 19:00N 34°59' E 136°48'0 0.1
2017-Dec-07 18:30N 34°59' E 136°48'0 0.1
2017-Dec-07 18:00N 34°59' E 136°48'0 0.0
2017-Dec-07 17:30N 34°59' E 136°48'0 0.0
2017-Dec-07 17:00N 34°59' E 136°48'0 0.0
2017-Dec-07 16:30N 34°59' E 136°48'0 0.0
2017-Dec-07 16:00N 34°59' E 136°48'0 0.0
2017-Dec-07 15:30N 34°59' E 136°48'0 0.0
2017-Dec-07 15:00N 34°59' E 136°48'0 0.0
2017-Dec-07 14:30N 34°59' E 136°48'0 0.0
2017-Dec-07 14:00N 34°59' E 136°48'0 0.0
2017-Dec-07 13:30N 34°59' E 136°48'0 0.0
2017-Dec-07 13:00N 34°59' E 136°48'0 0.0
2017-Dec-07 12:30N 34°59' E 136°48'0 0.0
2017-Dec-07 12:00N 34°59' E 136°48'0 0.0
2017-Dec-07 11:30N 34°59' E 136°48'0 0.0
2017-Dec-07 11:00N 34°59' E 136°48'0 0.0
2017-Dec-07 10:24N 34°59' E 136°48'0 0.0
2017-Dec-07 10:00N 34°59' E 136°48'0 0.0
2017-Dec-07 09:30N 34°59' E 136°48'0 0.0
2017-Dec-07 09:00N 34°59' E 136°48'0 0.0
2017-Dec-07 08:30N 34°59' E 136°48'0 0.0
2017-Dec-07 07:54N 34°59' E 136°48'0 0.0
2017-Dec-07 06:33N 34°59' E 136°48'0 0.5
2017-Dec-07 06:27N 34°59' E 136°48'0 0.0
2017-Dec-07 06:00N 34°59' E 136°48'0 0.1
2017-Dec-07 05:30N 34°59' E 136°48'0 0.0
2017-Dec-07 05:00N 34°59' E 136°48'0 0.0
2017-Dec-07 04:30N 34°59' E 136°48'0 0.0
2017-Dec-07 04:00N 34°59' E 136°48'0 0.0
2017-Dec-07 03:24N 34°59' E 136°48'0 0.0
2017-Dec-07 02:57N 34°59' E 136°48'0 0.0
2017-Dec-07 02:27N 34°59' E 136°48'0 0.0
2017-Dec-07 02:00N 34°59' E 136°48'0 0.0
2017-Dec-07 01:27N 34°59' E 136°48'0 0.0
2017-Dec-07 00:57N 34°59' E 136°48'0 0.0
2017-Dec-07 00:27N 34°59' E 136°48'0 0.0
2017-Dec-07 00:00N 34°59' E 136°48'0 0.0
2017-Dec-06 23:27N 34°59' E 136°48'0 0.0
2017-Dec-06 22:57N 34°59' E 136°48'0 0.0
2017-Dec-06 22:30N 34°59' E 136°48'0 0.0
2017-Dec-06 21:57N 34°59' E 136°48'0 0.0
2017-Dec-06 21:30N 34°59' E 136°48'0 0.0
2017-Dec-06 20:54N 34°59' E 136°48'  

Dump ship's entire track history